| time (UTC) | temp F | wind direction | speed MPH | gust MPH | rain 1hr in | rain 24hr in | rain mn in | humidity % | barometer mb |
| 20260505210240 | 52 | 45 | 6.0 | 15.0 | 0.00 | 0.00 | 0.00 | 77 | 1012.4 |
| 20260505203233 | 52 | 23 | 6.0 | 14.0 | 0.00 | 0.00 | 0.00 | 77 | 1012.3 |
| 20260505193241 | 53 | 40 | 7.0 | 18.0 | 0.00 | 0.00 | 0.00 | 75 | 1011.7 |
| 20260505190233 | 54 | 52 | 8.0 | 19.0 | 0.00 | 0.00 | 0.00 | 73 | 1011.4 |
| 20260505183256 | 55 | 25 | 10.0 | 23.0 | 0.00 | 0.00 | 0.00 | 71 | 1011.3 |
| 20260505180234 | 57 | 355 | 10.0 | 21.0 | 0.00 | 0.00 | 0.00 | 67 | 1011.0 |
| 20260505173233 | 58 | 56 | 9.0 | 17.0 | 0.00 | 0.00 | 0.00 | 65 | 1010.9 |
| 20260505170233 | 59 | 42 | 9.0 | 18.0 | 0.00 | 0.00 | 0.00 | 62 | 1010.8 |
| 20260505163239 | 61 | 69 | 7.0 | 17.0 | 0.00 | 0.00 | 0.00 | 62 | 1010.8 |
| 20260505160237 | 59 | 52 | 8.0 | 18.0 | 0.00 | 0.00 | 0.00 | 65 | 1010.6 |
| 20260505153237 | 60 | 44 | 7.0 | 15.0 | 0.00 | 0.00 | 0.00 | 66 | 1010.6 |
| 20260505150253 | 60 | 44 | 6.0 | 17.0 | 0.00 | 0.00 | 0.00 | 64 | 1010.7 |
| 20260505140232 | 63 | 355 | 4.0 | 11.0 | 0.00 | 0.00 | 0.00 | 53 | 1010.6 |
| 20260505130230 | 63 | 5 | 5.0 | 11.0 | 0.00 | 0.00 | 0.00 | 55 | 1010.7 |
| 20260505123232 | 61 | 22 | 3.0 | 11.0 | 0.00 | 0.00 | 0.00 | 59 | 1010.7 |
| 20260505120227 | 61 | 5 | 6.0 | 12.0 | 0.00 | 0.00 | 0.00 | 61 | 1010.9 |
| 20260505113227 | 60 | 355 | 6.0 | 12.0 | 0.00 | 0.00 | 0.00 | 63 | 1011.1 |
| 20260505110231 | 60 | 35 | 4.0 | 10.0 | 0.00 | 0.00 | 0.00 | 64 | 1011.4 |
| 20260505100223 | 58 | 337 | 4.0 | 10.0 | 0.00 | 0.00 | 0.00 | 69 | 1011.6 |
| 20260505093231 | 57 | 317 | 3.0 | 8.0 | 0.00 | 0.00 | 0.00 | 70 | 1011.8 |
| 20260505090222 | 56 | 0 | 3.0 | 8.0 | 0.00 | 0.00 | 0.00 | 75 | 1011.9 |
| 20260505083223 | 56 | 39 | 1.0 | 5.0 | 0.00 | 0.00 | 0.00 | 75 | 1012.1 |
| 20260505080222 | 55 | 51 | 2.0 | 6.0 | 0.00 | 0.00 | 0.00 | 77 | 1012.1 |
| 20260505073228 | 53 | 82 | 1.0 | 3.0 | 0.00 | 0.00 | 0.00 | 82 | 1012.1 |
| 20260505070220 | 51 | 109 | 0.0 | 3.0 | 0.00 | 0.00 | 0.00 | 83 | 1012.2 |
| 20260505063222 | 50 | 109 | 1.0 | 4.0 | 0.00 | 0.00 | 0.00 | 85 | 1012.5 |
| 20260505060223 | 49 | 79 | 0.0 | 3.0 | 0.00 | 0.00 | 0.00 | 86 | 1012.4 |
| 20260505050224 | 48 | 78 | 0.0 | 4.0 | 0.00 | 0.00 | 0.00 | 87 | 1012.5 |
| 20260505033222 | 50 | 63 | 0.0 | 4.0 | 0.00 | 0.00 | 0.00 | 85 | 1012.3 |
| 20260505030221 | 51 | 63 | 1.0 | 3.0 | 0.00 | 0.00 | 0.00 | 84 | 1012.4 |
| 20260505023220 | 51 | 59 | 0.0 | 3.0 | 0.00 | 0.00 | 0.00 | 84 | 1012.6 |
| 20260505020224 | 51 | 132 | 0.0 | 0.0 | 0.00 | 0.00 | 0.00 | 83 | 1012.5 |
| 20260505013222 | 51 | 132 | 1.0 | 4.0 | 0.00 | 0.00 | 0.00 | 83 | 1012.8 |
| 20260505010220 | 51 | 112 | 2.0 | 4.0 | 0.00 | 0.00 | 0.00 | 82 | 1013.0 |
| 20260505003221 | 52 | 128 | 0.0 | 4.0 | 0.00 | 0.00 | 0.00 | 82 | 1013.2 |
| 20260505000218 | 52 | 113 | 2.0 | 5.0 | 0.00 | 0.00 | 0.00 | 82 | 1013.4 |
| 20260504233219 | 52 | 82 | 0.0 | 9.0 | 0.00 | 0.00 | 0.00 | 81 | 1013.6 |
| 20260504230209 | 52 | 87 | 4.0 | 9.0 | 0.00 | 0.00 | 0.00 | 81 | 1013.7 |
| 20260504223208 | 53 | 79 | 3.0 | 8.0 | 0.00 | 0.00 | 0.00 | 81 | 1013.7 |
| 20260504220220 | 53 | 65 | 3.0 | 6.0 | 0.00 | 0.00 | 0.00 | 80 | 1013.7 |
| 20260504213204 | 53 | 52 | 1.0 | 4.0 | 0.00 | 0.00 | 0.00 | 80 | 1013.9 |